CAPE
267 345 354 370 404 307 244 146 97 108 111 109 37 0 0 0 0 116 367 624 1018 1226 1391 1619 1778 2002 2297 2398 2303 2320 2356 2328 2316 2341 2329 2040 2019 2203 2209 2151 2218 2224 2262 2204 2251 2373 2315 2226 2116 2041 2012 2244 2339 2496 2530 2508 2319 2003 1902 2177 2184 2197 2209 2212 2146 2244 2219 2175 2451 2607 2585 2505 2559 2425 2944 2931 2943 3122 3172 3490 3427 3260 3462 3933 3894
317 378 400 383 392 364 308 190 111 80 80 94 153 2 0 0 0 135 433 561 889 1154 1306 1502 1725 1857 2148 2355 2360 2289 2316 2340 2353 2377 2426 2294 2122 2023 2108 2157 2172 2215 2149 2291 2241 2360 2416 2336 2339 2316 2270 2370 2367 2434 2513 2578 2613 2429 2107 2265 2350 2345 2327 2297 2255 2258 2286 2348 2574 2573 2679 2577 2888 2519 2697 2757 3038 3089 3398 3546 3326 3335 3682 4091 3896
318 435 442 420 435 419 391 335 191 84 64 68 137 89 0 0 0 17 296 584 915 1068 1207 1361 1560 1717 1939 2198 2310 2300 2322 2336 2355 2393 2465 2512 2286 2106 2116 2156 2236 2252 2169 2276 2268 2267 2342 2377 2416 2439 2389 2379 2384 2422 2438 2501 2536 2515 2330 2236 2341 2462 2518 2493 2426 2290 2313 2514 2420 2574 2608 2526 2564 2971 2705 2551 2856 3060 3264 3615 3277 3096 3731 4090 3796
324 458 487 477 436 452 452 432 316 194 95 67 77 118 78 0 0 0 41 391 830 1124 1182 1270 1386 1527 1702 1959 2131 2257 2293 2322 2348 2378 2448 2531 2529 2323 2107 2113 2179 2247 2296 2311 2296 2302 2348 2359 2371 2378 2379 2427 2426 2479 2370 2393 2455 2500 2478 2464 2493 2601 2662 2650 2576 2445 2468 2490 2574 2531 2535 2499 2829 2587 2636 2814 2994 3352 3224 3254 3186 3182 3822 4160 3838
397 430 468 540 489 476 463 455 424 343 243 146 90 83 112 113 32 0 0 57 500 934 1230 1260 1306 1377 1517 1675 1868 2072 2210 2240 2274 2326 2381 2429 2476 2433 2292 2144 2138 2192 2224 2253 2492 2414 2428 2448 2471 2338 2337 2425 2426 2410 2372 2420 2398 2438 2508 2545 2582 2628 2648 2606 2578 2591 2616 2603 2582 2571 2617 2636 2648 2658 2645 3224 3296 3144 2995 3113 3070 3047 3721 4034 3633
533 482 479 501 519 521 521 480 483 428 356 276 192 111 101 129 173 157 0 0 47 467 974 1184 1274 1278 1392 1504 1609 1798 2008 2114 2164 2216 2250 2257 2259 2280 2278 2226 2132 2183 2163 2094 2225 2408 2468 2535 2510 2440 2382 2480 2617 2519 2480 2452 2382 2409 2477 2543 2564 2542 2503 2517 2575 2672 2705 2729 2748 2786 2773 2718 2816 2707 2594 2856 3225 3314 3393 3340 2975 2947 3655 4124 3892
608 585 548 530 520 525 525 547 545 536 487 389 298 218 125 91 130 272 281 53 3 29 324 836 1184 1214 1244 1333 1433 1552 1730 1895 2040 2106 2159 2160 2151 2166 2131 2178 2232 2220 2231 2222 2142 2159 2221 2310 2434 2457 2512 2536 2586 2663 2649 2520 2506 2597 2603 2652 2612 2625 2631 2596 2617 2698 2727 2730 2745 2749 2766 2785 2715 2942 2902 2652 2697 2842 3030 3178 3324 3028 3023 3540 3967
687 632 613 593 559 529 559 562 590 610 618 636 625 624 339 150 111 127 342 376 203 65 38 190 578 1029 1126 1160 1248 1351 1476 1652 1819 1964 2088 2147 2148 2157 2181 2230 2250 2271 2300 2349 2307 2207 2208 2217 2215 2256 2374 2501 2563 2716 2691 2811 2661 2702 2694 2576 2626 2644 2675 2721 2705 2749 2762 2748 2733 2774 2758 2758 2702 2637 2592 2505 2780 2680 2380 2646 3092 3405 3660 3396 3401
769 709 689 653 614 648 547 577 589 643 680 700 754 768 780 729 673 509 196 339 423 360 191 90 106 350 715 946 1050 1149 1264 1379 1570 1739 1946 2080 2161 2191 2206 2238 2280 2323 2328 2328 2358 2406 2344 2278 2288 2287 2285 2525 2357 2351 2445 2512 2758 2818 2832 2630 2712 2702 2853 2720 2761 2763 2696 2624 2657 2640 2621 2646 2757 2678 2714 2666 2781 2948 2633 2398 2545 2715 2672 2794 3512
841 790 733 705 666 706 828 836 625 629 697 760 816 868 899 917 917 867 777 667 405 500 460 346 195 158 263 515 748 892 1048 1172 1331 1328 1500 1871 2073 2111 2216 2269 2289 2346 2392 2373 2302 2325 2407 2432 2398 2628 2376 2380 2390 2384 2395 2374 2402 2617 2774 2706 2755 2800 2810 2854 2822 2754 2746 2743 2715 2733 2716 2743 2836 2840 2573 2574 2502 2295 2468 2559 2603 2754 2361 2912 2982
877 820 784 768 747 688 773 897 915 808 707 759 858 920 975 1018 1043 1052 1013 948 859 711 547 548 491 372 257 270 448 682 839 932 982 1103 1257 1416 1764 2026 2167 2226 2307 2372 2342 2422 2382 2291 2218 2363 2448 2767 3126 2544 2449 2472 2504 2546 2586 2663 2676 2592 2604 2761 2806 2733 2762 2716 2625 2669 2808 2628 2586 2773 2872 2762 2580 2582 2500 2589 2990 2885 2770 2290 2432 2327 2686
876 840 837 840 812 775 728 922 954 873 755 822 908 973 1028 1117 1131 1180 1182 1159 1142 1040 921 734 583 573 487 390 370 480 666 715 774 904 1058 1225 1396 1848 2048 2141 2238 2268 2307 2344 2381 2352 2317 2228 2220 2233 2605 2952 3052 2823 2627 2643 2657 2660 2656 2648 2622 2598 2607 2747 2891 2885 2658 2640 2758 2769 2710 2789 2890 2835 2661 2434 2775 2704 2634 2285 2160 2474 2530 2463 2356
915 932 954 904 876 846 819 792 756 813 907 993 1032 1126 1168 1237 1258 1308 1311 1310 1296 1289 1250 1122 969 743 571 549 444 440 527 393 602 776 896 1047 1239 1464 1928 2025 2104 2176 2262 2318 2350 2413 2429 2394 2268 2266 2175 2697 3041 3062 3010 2801 2608 2676 2698 2723 2725 2721 2710 2698 2724 2766 3116 2864 2793 2928 2821 2859 2811 2893 2737 2732 2484 2885 2413 2298 2279 2228 2265 2547 2836
992 1023 997 960 955 945 947 942 980 990 1095 1204 1277 1363 1374 1426 1430 1447 1466 1478 1464 1460 1439 1391 1350 1219 1037 759 576 517 494 332 0 685 809 931 1082 1269 1604 1937 2013 2062 2136 2223 2249 2334 2350 2347 2401 2334 2249 2395 2790 2977 2969 2932 2890 2528 2459 2518 2576 2616 2633 2662 2683 2700 2715 2732 2849 2866 2897 2884 2826 2737 2913 2580 2407 2670 2563 2474 2412 2485 2412 2414 2630
1186 1097 1084 1093 1088 1097 1108 1128 1173 1185 1265 1410 1490 1549 1554 1555 1580 1585 1614 1650 1639 1660 1643 1588 1580 1547 1463 1366 1158 889 561 247 0 0 721 854 964 1104 1264 1684 1880 1962 2044 2086 2133 2242 2295 2253 2287 2333 2343 2271 2324 2504 2665 2752 2802 2746 2623 2395 2391 2429 2457 2485 2515 2537 2528 2476 2425 2400 2587 2872 2908 2857 2837 2861 2645 2721 2649 2674 2558 2503 2433 2282 2307
1629 1545 1287 1236 1252 1209 1267 1320 1338 1364 1464 1626 1718 1750 1748 1721 1811 1882 1954 1977 2014 2030 1976 1920 1839 1816 1776 1685 1612 1460 1186 884 282 0 211 755 882 999 1080 1356 1687 1820 1919 1947 2044 2087 2207 2244 2194 2258 2229 2173 2012 1975 2120 2389 2480 2606 2629 2588 2516 2346 2282 2294 2284 2243 2198 2184 2169 2139 2125 2149 2214 2739 2712 2659 2474 2350 2211 2292 2370 2444 2351 2242 2454
1756 1785 1940 2029 1876 1761 1522 1462 1509 1594 1657 1832 1923 1942 1921 1808 1953 2033 2132 2233 2274 2338 2315 2312 2204 2110 1973 1895 1736 1603 1498 1322 1079 750 0 28 762 890 964 1110 1377 1636 1768 1873 1943 2032 2084 2138 2138 2201 2260 2170 1976 1959 1980 1992 2309 2245 2315 2333 2294 2138 2144 2114 1936 1968 2017 2054 2056 2023 2021 2036 2062 2066 2031 1910 1829 1990 1981 2060 2284 2183 2191 2194 2358
1828 1854 1910 1997 2142 2402 2181 2072 1998 1743 1821 1976 2058 2080 2096 2058 2170 2253 2211 2279 2328 2403 2484 2541 2536 2471 2341 2174 2052 1811 1610 1413 1234 1007 678 51 466 705 802 898 1114 1380 1595 1738 1820 1876 1944 2289 2323 2151 2184 2115 1926 1936 1966 1964 2079 2218 2172 2141 2129 2083 2101 2002 1894 1905 1912 1905 1887 1886 1910 1950 1975 2006 2001 1913 1810 1749 1945 2178 2331 2240 2502 2579 2708
1890 1945 1983 2076 2186 2301 2478 2538 2243 2234 1972 2089 2170 2201 2241 2296 2353 2384 2395 2426 2446 2480 2500 2588 2640 2676 2675 2584 2366 2122 1822 1541 1308 1123 906 663 208 588 668 776 1002 1206 1407 1569 1689 1806 1823 2170 2388 2335 2034 1964 1860 1873 1906 1903 1903 2005 2151 2082 2098 2103 2108 2170 2152 2014 1996 1852 1890 1928 1962 2003 2101 2116 2113 2048 1926 1916 2025 2115 2125 2131 2410 2681 2662
1867 1928 2059 2182 2249 2355 2405 2559 2633 2610 2501 2345 2364 2444 2486 2505 2530 2512 2516 2532 2524 2541 2585 2594 2682 2736 2733 2777 2766 2594 2243 1864 1502 1268 1087 880 670 546 624 765 996 1111 1275 1431 1560 1610 1731 1771 1828 1795 2034 1942 1876 1860 1866 1861 1868 1864 1919 1992 2044 2140 2138 2049 1961 2023 2081 2195 2282 2222 2116 2252 2407 2513 2513 2375 2198 2278 2480 2565 2553 2554 2649 2886 3003
1330 1825 2170 2247 2306 2374 2438 2500 2598 2721 2755 2801 2802 2722 2634 2590 2607 2595 2576 2566 2603 2633 2640 2691 2733 2804 2864 2874 2856 2812 2700 2410 1995 1554 1262 1054 884 729 649 757 899 1070 1185 1271 1441 1551 1582 1637 1724 1518 1566 1740 1859 1902 1862 1859 1856 1841 1810 1872 1926 1892 1920 2071 1905 2342 2284 2108 2116 2247 2425 2403 2563 2626 2699 2656 2480 2549 2834 3027 3084 3148 3199 3022 2765
953 1304 1789 2050 2122 2176 2240 2316 2562 2694 2663 2831 2752 2840 2843 2810 2756 2761 2682 2652 2638 2639 2682 2713 2767 2813 2861 2958 2967 2926 2871 2751 2632 2264 1715 1293 1059 924 806 784 853 1023 1139 1210 1274 1366 1407 1465 1489 1420 1375 1440 1523 1600 1680 1716 1751 1732 1730 1705 1716 1728 1750 1780 1905 2107 2624 2692 2607 2513 2529 2598 2751 2823 2838 2722 2559 2629 2822 3155 3526 3446 3170 2753 2736
1072 1384 1632 2007 2093 2201 2285 2328 2403 2750 2965 3068 2878 2928 2804 2820 2836 2846 2835 2783 2718 2689 2702 2722 2732 2778 2820 2875 2969 3008 2968 2909 2804 2677 2422 1952 1439 1104 988 935 906 905 1120 1195 1224 1239 1296 1353 1370 1208 1243 1291 1343 1404 1460 1504 1520 1543 1577 1608 1649 1698 1748 1836 1933 2023 2101 2196 2319 2490 2663 2772 2829 2796 2787 2772 2635 2662 2929 3185 3351 3225 2932 2890 3016
1074 1239 1505 1704 1796 1944 2156 2274 2318 2406 2809 3087 3144 3030 2853 2807 2796 2822 2852 2829 2773 2714 2718 2739 2730 2725 2756 2804 2840 2976 3029 2966 2905 2821 2696 2554 2168 1646 1236 1063 1030 1026 1039 1238 1260 1331 1326 1366 1330 1200 1226 1251 1297 1352 1401 1453 1499 1546 1600 1664 1735 1806 1940 2049 2125 2182 2218 2299 2462 2623 2706 2759 2773 2720 2755 2855 2750 2803 2795 2989 3126 3094 2870 3066 3276
884 1165 1327 1450 1522 1498 1603 1748 1972 2044 2076 2652 3082 3143 3095 2985 2866 2833 2819 2823 2792 2745 2722 2731 2756 2735 2707 2722 2837 2960 3050 3038 2945 2878 2804 2708 2606 2368 1927 1466 1218 1172 1181 1193 1194 1271 1222 1201 1204 1224 1250 1286 1340 1386 1436 1502 1567 1644 1744 1863 1988 2068 2184 2245 2296 2317 2335 2410 2550 2635 2528 2366 2442 2599 2825 2995 2827 2615 2699 2899 3030 3070 3129 3217 3260
712 1016 956 934 1194 1271 1220 1264 1275 1254 1673 2192 2638 3047 3112 3130 3049 2990 2896 2838 2808 2777 2752 2727 2727 2756 2744 2696 2739 2873 3032 3105 3023 2925 2843 2773 2718 2623 2487 2181 1744 1396 1322 1310 1290 1268 1252 1244 1235 1246 1290 1348 1384 1468 1540 1619 1697 1788 1910 2009 2102 2193 2231 2317 2407 2442 2487 2513 2512 2513 2482 2434 2349 2473 2708 2756 2470 2645 2769 2904 3038 3130 3133 3134 2993
163 676 1006 1122 912 699 631 437 656 1288 1945 2518 2855 2974 3077 3104 3117 3110 3045 2987 2923 2860 2790 2786 2750 2747 2711 2741 2735 2750 2835 2919 3000 2978 2893 2820 2768 2691 2604 2490 2252 1916 1551 1414 1406 1407 1396 1401 1430 1465 1514 1553 1563 1559 1631 1687 1766 1887 2013 2121 2217 2298 2384 2436 2538 2614 2642 2622 2609 2579 2500 2376 2381 2234 2290 2214 2401 2596 2774 2953 3064 3155 3127 3085 3009
147 396 771 771 632 628 572 300 609 1194 1938 2437 2710 2975 3103 3118 3124 3123 3102 3050 2991 2957 2896 2870 2840 2804 2759 2727 2704 2744 2747 2733 2744 2841 2922 2842 2738 2684 2644 2606 2512 2332 2071 1716 1506 1525 1531 1542 1555 1588 1631 1671 1669 1640 1731 1809 1905 2024 2144 2243 2335 2425 2490 2555 2625 2699 2711 2706 2683 2602 2498 2380 2252 2290 2286 2237 2275 2473 2678 2870 3036 3136 3091 2949 2676
4 225 388 580 571 554 452 301 210 826 1478 2276 2695 2863 3015 3152 3155 3130 3083 3049 3014 2968 2916 2833 2812 2779 2752 2670 2610 2589 2632 2618 2625 2607 2692 2728 2678 2578 2544 2537 2502 2418 2281 2103 1851 1562 1582 1584 1602 1639 1678 1694 1697 1681 1750 1834 1931 2038 2168 2262 2364 2444 2508 2572 2650 2709 2734 2719 2700 2628 2545 2420 2346 2392 2448 2441 2408 2327 2529 2766 2894 2918 2849 2676 2414
3 61 84 7 155 356 136 4 9 175 886 1904 2570 2955 3089 3166 3200 3169 3169 3095 3054 3029 2966 2879 2790 2703 2668 2640 2567 2526 2485 2429 2441 2509 2546 2589 2575 2469 2388 2384 2407 2386 2347 2239 2082 1901 1667 1633 1647 1666 1676 1671 1680 1664 1713 1791 1890 1993 2096 2206 2308 2389 2460 2540 2593 2663 2692 2694 2683 2650 2592 2500 2414 2431 2596 2643 2515 2411 2409 2595 2735 2760 2784 2701 2428
5 3 6 5 8 6 74 6 11 160 435 1092 2106 2590 2896 3176 3267 3228 3174 3105 3078 3034 3006 2962 2939 2855 2744 2668 2584 2594 2551 2518 2515 2526 2555 2571 2573 2497 2371 2315 2334 2304 2282 2237 2135 2011 1842 1651 1683 1717 1724 1726 1708 1695 1683 1701 1790 1871 1980 2084 2195 2294 2372 2440 2499 2544 2587 2608 2624 2625 2599 2564 2513 2484 2633 2716 2689 2530 2451 2468 2619 2704 2703 2656 2347
3 4 5 5 6 9 8 10 12 12 146 546 1137 1946 2518 2794 3084 3277 3303 3170 3067 3050 3044 3016 2953 2884 2924 2891 2846 2836 2790 2756 2747 2739 2711 2714 2716 2687 2579 2476 2467 2444 2424 2327 2276 2148 1980 1853 1715 1694 1719 1732 1736 1727 1700 1676 1675 1736 1814 1918 2003 2116 2208 2278 2343 2400 2457 2477 2518 2562 2598 2610 2595 2572 2583 2682 2768 2668 2576 2542 2612 2725 2769 2768 2765
2 4 6 7 12 15 13 8 5 5 3 4 336 1203 2077 2643 2776 2837 3029 3174 3171 3100 3079 3084 3070 3054 3013 2992 2942 2938 2933 2918 2925 2911 2896 2876 2866 2870 2813 2729 2654 2599 2481 2421 2363 2277 2134 2010 1890 1757 1764 1757 1777 1770 1751 1714 1697 1680 1694 1764 1834 1922 2002 2136 2187 2257 2293 2362 2428 2489 2576 2650 2665 2669 2701 2735 2759 2859 2811 2813 2775 2804 2890 2870 2815
3 5 9 15 14 14 12 10 8 7 8 6 253 434 1126 2145 2589 2770 2664 2860 3006 3157 3146 3118 3123 3135 3123 3117 3098 3078 3078 3048 3040 3012 2990 2970 2958 2977 2971 2904 2793 2703 2665 2604 2510 2432 2317 2182 2066 1931 1784 1848 1875 1904 1893 1877 1872 1862 1860 1872 1888 1969 2072 2146 2216 2266 2331 2391 2414 2438 2525 2641 2730 2789 2907 2944 2856 2796 2835 2873 2892 3000 3030 2972 2894
3 7 10 12 13 10 9 7 5 6 8 7 8 214 594 1003 2005 2520 2712 2695 2787 2975 3094 3153 3169 3155 3172 3177 3172 3159 3145 3118 3087 3065 3050 3046 3043 3042 3023 2992 2899 2776 2728 2695 2613 2525 2423 2294 2157 2032 1927 1896 1988 1995 2010 2012 2023 2053 2058 2045 1999 1996 2039 2124 2207 2280 2335 2347 2366 2361 2452 2622 2744 2805 2788 2681 2599 2576 2587 2664 2770 2837 3014 3176 2994
3 4 2 3 4 5 5 5 7 8 8 8 9 8 12 502 880 1722 2526 2734 2772 2767 2959 3075 3146 3198 3187 3222 3236 3250 3225 3199 3153 3108 3097 3112 3109 3093 3059 3015 2969 2935 2878 2840 2831 2794 2671 2605 2446 2272 2106 2009 2103 2109 2108 2116 2123 2136 2166 2171 2095 1968 1960 2019 2112 2196 2251 2289 2291 2266 2326 2497 2571 2576 2485 2339 2358 2513 2494 2558 2662 2754 2712 2562 2347
4 3 3 3 3 4 5 8 7 8 8 9 7 6 8 17 166 648 1252 2310 2780 2823 2844 2892 3040 3141 3202 3265 3312 3314 3278 3233 3206 3180 3190 3201 3212 3196 3202 3179 3147 3090 3041 2980 2915 2861 2833 2799 2690 2497 2287 2150 2129 2212 2202 2192 2212 2219 2222 2215 2164 2056 1962 1963 2026 2081 2136 2171 2204 2190 2189 2258 2287 2242 2170 2232 2398 2482 2514 2643 2792 2776 2792 1844 2142
3 2 2 2 3 4 6 5 6 5 10 14 17 18 12 18 136 429 571 883 1698 2526 2786 2779 2796 2862 3080 3192 3271 3264 3246 3197 3206 3238 3254 3237 3198 3195 3223 3250 3225 3233 3161 3103 3046 2995 2982 2912 2882 2764 2560 2342 2175 2219 2205 2234 2237 2225 2189 2144 2113 2098 2090 2103 2101 2130 2194 2254 2239 2203 2225 2143 2015 2102 2182 2333 2442 2422 2486 2653 2859 2840 2446 2145 1769
3 1 1 2 2 5 5 6 7 10 11 12 12 10 7 7 35 311 478 666 736 1040 1802 2298 2474 2612 2715 2954 3097 3093 3068 3119 3200 3256 3264 3251 3251 3266 3277 3325 3341 3316 3225 3168 3174 3180 3169 3140 3057 2970 2815 2595 2376 2228 2130 2136 2143 2146 2106 2043 2036 2068 2092 2116 2136 2183 2207 2236 2215 2180 2243 2209 2115 2126 2258 2443 2536 2521 2420 2319 2523 2599 2338 1773 1608
1 2 2 2 4 5 7 9 10 11 9 7 6 7 6 6 5 11 405 588 603 671 908 1238 1711 2176 2372 2494 2530 2714 2870 2994 3103 3208 3265 3282 3264 3314 3342 3369 3387 3378 3345 3225 3203 3260 3296 3402 3352 3080 2890 2813 2613 2470 2351 2178 2041 2028 1995 1948 1934 1956 1984 2005 2042 2082 2136 2161 2149 2256 2285 2167 2127 2195 2283 2445 2502 2474 2194 2186 2133 1957 1870 1460 1100
1 3 8 3 3 4 6 8 6 6 5 6 6 5 5 5 6 6 6 98 454 548 565 731 1041 1313 1673 2022 2124 2111 2235 2478 2702 2895 3040 3186 3314 3354 3316 3348 3382 3407 3466 3415 3384 3341 3285 3339 3278 3096 2893 2947 2873 2805 2656 2463 2296 2190 2058 1964 1882 1848 1855 1849 1892 1939 1958 2064 2205 2234 2097 1925 1866 1983 2179 2354 2506 2236 1956 1899 1850 1813 1692 1561 1286
2 3 4 4 5 4 5 6 5 7 6 7 6 5 5 4 5 4 4 5 22 198 325 414 549 852 1098 1406 1716 1815 1781 1792 1918 2292 2586 2857 3091 3200 3137 3052 3130 3160 3331 3188 3240 3283 3074 3018 2852 2945 3087 3055 2929 2916 2845 2659 2555 2459 2313 2173 2098 2102 2116 2072 1951 1978 2124 2177 2148 2039 1959 1869 1787 1850 2040 2240 2398 2396 2092 1941 1933 1730 1659 1454 1308
5 5 4 6 3 3 4 4 6 4 5 4 4 6 7 5 4 4 5 5 4 10 111 209 409 464 602 876 1353 1553 1580 1559 1668 1775 1907 2118 2372 2610 2684 2658 2842 3033 2997 2853 2866 3329 3477 3375 3083 2976 3097 3074 3058 3044 2960 2824 2737 2622 2491 2412 2404 2432 2398 2211 2055 2146 2193 2064 1904 1933 1949 1887 1830 1990 2058 2118 2247 2210 2088 1981 1941 1999 1785 1559 1482
4 5 6 5 3 4 6 5 5 6 5 6 6 5 5 5 5 5 4 3 4 10 14 94 210 394 485 566 770 1151 1271 1307 1430 1612 1794 1875 1859 1916 2107 2263 2386 2593 2707 2802 2833 2910 3207 3180 3088 3020 3093 3167 3097 3033 2980 2908 2793 2690 2645 2687 2752 2780 2600 2222 2031 2045 1980 1840 1923 2000 1961 2109 2306 2290 2238 2175 2104 2172 2026 1867 1860 1745 1805 1697 1294
4 4 4 3 4 4 4 4 5 8 6 6 4 4 5 3 56 4 5 3 3 345 378 243 382 405 479 573 688 770 932 1071 1164 1424 1579 1706 1837 1849 1921 2137 2342 2468 2651 2825 2898 2887 2772 3262 3295 3291 3246 3033 2985 3052 3073 2998 2835 2800 2836 2885 2909 2855 2614 2319 2073 1861 1736 1881 1989 1952 2048 2344 2432 2444 2400 2314 2174 2148 2091 2060 1942 1787 1707 1558 1382
3 3 4 3 3 4 4 4 6 6 5 5 3 3 4 4 101 179 3 4 4 124 371 466 503 503 562 702 830 910 1037 1152 1272 1385 1541 1707 1776 1825 1860 1922 2088 2284 2402 2529 2664 2678 2786 3006 3244 3298 3194 3224 3258 3276 3100 3086 3048 3044 3011 2965 2932 2738 2502 2105 1797 1666 1848 1873 1895 1990 2146 2335 2392 2397 2362 2304 2243 2187 2088 1963 1937 1632 1327 1046 908
2 4 4 3 2 3 4 5 4 5 4 4 5 4 4 4 5 225 326 358 357 337 366 429 509 585 628 676 762 837 910 1006 1181 1333 1475 1582 1734 1855 1956 1958 1942 1976 2001 2168 2330 2379 2448 2599 2811 2903 2835 3102 2817 2984 2940 2909 3238 3138 2943 2903 2759 2536 2166 1573 1556 1806 1872 1940 2052 2120 2176 2225 2285 2250 2152 2083 2116 2151 2175 2038 1790 1495 1295 1052 560
3 4 2 2 1 2 2 3 4 6 4 4 5 5 5 6 4 180 306 401 442 457 460 502 573 659 718 782 870 990 994 1032 1082 1254 1397 1537 1702 1820 1976 2089 2099 2097 2084 2157 2240 2332 2360 2268 2230 2233 2354 2046 2401 3055 3162 2814 2474 2508 2720 2669 2714 2558 1627 1341 1723 1879 1837 1856 1906 1904 1867 1892 1884 1875 1895 1943 2036 2056 2052 2015 1747 1276 1061 878 739
3 3 2 3 3 2 2 3 3 4 4 4 4 4 5 5 5 51 170 273 413 522 569 580 614 706 772 847 922 1000 1036 1037 1073 1125 1194 1324 1517 1709 1904 2149 2127 1861 2004 2160 2171 2134 2190 1965 1849 1870 2273 2676 2759 2964 3015 2983 2964 2644 2324 2397 2536 2155 1459 1607 1841 1987 1923 1776 1617 1525 1441 1416 1568 1724 1812 1890 1942 1996 1966 1706 1120 1133 1008 822 736
4 2 2 3 3 2 3 4 3 3 4 4 4 5 5 5 5 6 157 279 380 483 601 672 695 734 794 829 820 846 950 1014 1064 1121 1156 1150 1210 1403 1647 1876 1933 1683 1838 1981 1986 2115 1936 1759 1605 1554 2038 2620 2736 2625 2772 2846 2500 2106 1668 1896 1986 1505 1482 1567 1765 1744 1544 1271 1045 1106 1180 1306 1398 1511 1553 1601 1603 1507 1402 1275 1068 874 775 660 540
4 2 3 2 2 2 2 2 2 3 3 4 5 5 5 5 6 6 6 212 373 512 618 767 916 948 939 850 851 803 791 887 976 1036 1061 1061 1054 1172 1445 1601 1596 1651 1550 1688 1883 1815 1664 1518 1424 1314 1386 1291 1639 1850 1955 1803 1459 1357 961 878 1030 1206 960 796 1154 1371 1115 907 914 985 1008 1058 1150 1219 1199 1030 874 754 594 619 604 720 655 540 411
Wind_Speed
9 9 11 10 11 12 12 12 nan 10 8 6 nan nan nan nan nan 6 8 6 5 4 4 3 4 4 4 5 5 5 6 7 8 9 9 9 10 10 11 11 11 12 13 13 13 12 10 8 8 9 10 10 11 11 10 11 12 13 13 13 13 12 11 12 11 13 13 11 11 11 12 12 11 11 10 9 8 6 5 5 4 5 6 8 9
9 11 13 12 10 12 13 14 13 nan nan nan 7 nan nan nan nan 8 6 6 6 5 3 5 5 4 4 3 4 4 5 6 8 9 9 9 9 12 12 11 12 12 14 12 12 13 12 10 10 10 10 10 11 10 10 11 12 12 12 12 12 12 12 12 11 12 15 14 12 11 11 12 12 11 12 11 9 8 7 6 5 6 6 8 9
8 12 13 14 12 14 16 16 16 nan nan nan 9 nan nan nan nan nan 7 7 7 6 5 5 4 4 3 4 4 5 5 6 8 8 9 9 9 10 10 10 11 11 12 11 11 12 12 10 10 10 11 11 10 10 11 11 12 12 11 12 12 12 12 11 12 12 13 14 12 13 12 12 11 11 12 10 8 8 7 7 7 6 7 8 9
7 10 12 14 15 16 15 16 15 15 nan nan nan 10 nan nan nan nan nan 9 8 7 6 5 6 4 4 4 4 5 5 7 8 9 9 9 9 8 9 9 10 10 10 10 10 10 9 8 9 9 10 10 11 11 11 12 12 12 12 12 12 11 12 12 10 11 13 13 13 12 13 13 11 11 11 11 10 10 10 8 8 8 8 10 11
6 7 10 13 15 16 15 16 15 13 14 17 nan nan 13 14 nan nan nan nan 9 9 8 8 7 6 7 6 6 6 6 7 8 9 10 10 9 9 8 8 8 8 8 7 8 8 8 7 7 8 9 9 10 11 11 10 12 12 11 12 11 12 12 12 12 12 12 11 12 13 13 12 11 11 13 13 12 10 11 10 10 10 10 12 15
6 7 10 11 13 14 15 16 14 14 14 17 17 17 16 14 14 15 nan nan nan 11 9 10 8 7 7 7 6 6 7 8 8 9 10 10 9 9 8 8 8 8 7 6 6 7 7 6 6 7 7 6 7 8 9 8 10 10 10 10 10 11 11 11 12 12 12 11 12 13 13 13 13 12 15 16 13 11 11 12 13 14 15 14 16
9 8 8 8 11 12 14 15 16 17 16 17 20 20 19 nan 17 16 16 nan nan nan 12 10 10 10 9 9 8 8 8 9 10 10 11 11 9 9 8 8 8 8 7 7 6 5 5 5 5 5 5 5 5 5 7 8 8 8 8 8 10 10 9 10 10 11 11 11 12 12 12 13 14 11 14 15 13 13 13 14 14 16 18 18 17
11 10 9 9 9 10 13 15 17 18 19 20 20 20 20 19 18 18 19 17 15 nan nan 13 13 14 13 11 9 10 9 10 10 11 12 12 11 10 10 9 9 8 8 7 7 6 5 4 4 4 3 4 4 5 6 6 8 7 8 9 9 9 9 9 9 10 11 11 12 12 14 13 14 15 14 13 12 15 18 17 15 15 16 19 21
12 10 9 8 9 11 14 16 19 20 21 22 21 20 20 20 21 21 20 19 19 18 16 nan 15 13 13 12 11 11 10 9 11 12 13 13 13 12 11 10 9 9 9 8 7 6 6 5 4 4 3 2 1 1 2 4 6 5 7 10 9 9 9 9 9 10 11 11 11 13 12 12 13 13 11 12 13 11 18 19 16 17 17 17 18
14 12 10 10 11 13 14 16 18 20 21 21 21 21 21 22 22 21 20 20 20 20 19 17 16 14 13 13 13 12 10 11 9 7 10 14 15 14 13 12 10 10 9 9 8 6 5 6 5 0 1 2 2 2 2 2 2 4 5 10 9 10 10 10 10 11 11 11 12 12 10 11 12 14 11 11 12 14 15 17 16 17 17 17 18
17 14 12 13 14 14 14 14 16 17 19 21 22 22 21 22 22 21 21 21 21 21 21 18 16 16 15 14 12 12 12 12 7 8 8 8 14 14 13 12 12 11 10 9 8 8 8 6 6 3 1 1 1 2 2 3 3 3 3 3 8 11 10 10 10 13 14 13 14 14 13 11 11 14 12 11 14 15 15 17 16 18 18 17 16
19 17 15 16 16 14 14 14 15 15 17 18 20 21 21 21 21 21 21 20 21 22 20 18 17 17 18 17 14 12 12 11 9 8 8 8 11 14 16 16 14 12 11 10 10 10 9 8 8 8 7 5 6 5 2 3 4 5 6 6 6 8 9 10 10 13 14 14 14 14 15 15 13 16 15 16 15 17 18 20 20 19 18 19 19
22 20 19 18 17 16 16 15 14 14 15 17 18 21 21 20 20 20 20 21 23 22 19 18 18 18 17 16 13 13 13 13 12 10 9 9 9 12 18 17 16 14 13 12 12 12 11 11 10 10 9 3 4 6 7 5 3 5 5 6 6 8 8 8 9 11 14 15 13 13 16 16 15 15 20 20 22 19 23 23 23 23 23 21 21
25 22 21 19 19 18 17 16 15 14 15 16 18 18 19 19 20 21 22 23 22 20 19 18 18 18 17 16 15 14 13 14 nan 13 11 10 11 13 17 18 17 16 14 14 14 13 12 12 12 11 11 10 9 8 8 8 9 9 8 8 8 6 7 8 9 9 11 13 14 13 12 21 16 14 17 24 23 19 23 21 26 26 26 24 24
30 27 25 22 22 20 18 17 15 15 16 16 17 17 17 18 19 21 23 22 21 20 20 19 18 18 17 17 17 14 13 12 nan nan 13 13 13 15 18 19 19 17 16 15 12 13 13 14 12 12 13 12 12 11 11 11 11 11 9 9 9 10 11 12 14 15 16 15 14 14 13 16 16 15 16 23 21 19 21 20 25 28 29 29 28
45 38 31 28 25 23 20 18 17 17 17 17 16 15 16 18 18 20 21 22 22 22 22 20 19 18 18 17 17 12 14 13 15 nan 15 15 17 21 18 17 18 17 17 15 16 15 15 15 14 14 12 12 11 10 10 14 14 12 10 10 11 11 11 12 14 15 16 18 17 16 16 16 17 17 18 22 22 21 23 25 28 30 29 25 24
54 52 46 38 32 29 26 22 20 19 19 17 15 14 15 17 18 22 21 21 22 22 21 21 20 20 19 18 16 14 14 15 16 15 nan nan 22 23 20 18 17 17 17 18 18 19 18 17 16 16 14 13 12 14 13 15 16 14 13 12 13 13 11 16 17 16 15 16 17 17 16 16 16 16 16 20 22 24 25 24 24 29 27 23 24
55 52 50 49 46 36 30 26 23 21 21 17 16 15 15 16 17 20 19 20 20 20 21 21 21 21 20 17 17 17 16 16 17 16 17 nan 22 21 20 19 17 16 18 20 22 22 18 14 16 17 16 14 14 17 18 20 18 17 17 16 15 13 12 18 22 20 16 15 14 14 14 14 14 14 17 21 24 27 26 22 24 28 25 25 23
55 53 51 49 46 45 40 31 25 23 21 19 18 16 16 15 15 17 18 19 19 21 21 21 21 21 21 19 16 15 17 17 19 18 20 23 23 20 20 20 18 16 18 20 22 24 23 21 15 14 16 15 15 20 22 23 21 20 21 20 16 13 15 21 22 20 22 21 18 18 16 16 17 20 20 23 29 28 26 23 24 26 23 25 25
55 52 50 47 46 45 43 41 34 26 22 21 20 18 18 19 18 18 16 17 17 19 19 21 19 21 21 20 20 18 15 17 20 20 22 25 26 23 22 20 17 16 18 20 22 23 24 25 22 17 15 15 17 21 26 25 23 24 25 21 17 13 20 24 21 20 19 20 17 18 17 19 22 23 24 26 28 30 28 26 26 26 25 24 25
57 54 48 45 45 44 43 40 36 33 28 25 24 23 23 21 20 18 18 17 16 16 16 17 18 18 20 20 19 18 18 17 19 22 22 26 26 25 22 18 17 18 19 20 23 23 24 26 27 24 21 19 19 21 29 27 24 26 26 22 17 14 20 24 22 20 20 20 19 20 20 20 22 23 24 26 27 29 29 28 28 28 28 26 26
57 52 49 48 47 46 45 42 38 36 34 32 29 27 25 24 23 21 21 20 16 14 15 15 15 15 17 17 17 17 18 17 19 23 23 25 26 26 22 19 19 20 20 20 21 21 22 24 26 26 26 24 23 23 28 30 27 28 24 19 15 16 18 21 23 25 23 21 21 21 22 22 23 23 25 26 27 28 29 29 29 30 29 28 28
55 53 51 53 52 48 46 46 44 42 38 35 32 28 28 26 24 25 24 22 19 16 15 16 15 13 13 13 14 15 18 20 19 21 24 24 25 24 21 20 22 22 20 19 19 19 22 23 24 25 27 27 26 27 30 33 35 30 23 22 20 18 22 26 22 23 23 22 22 21 22 24 24 24 25 26 27 29 29 30 31 31 30 29 28
50 52 52 54 55 52 49 47 46 44 42 40 36 31 29 28 27 27 27 25 24 21 19 19 17 15 13 12 12 13 17 18 21 20 23 25 24 24 21 19 24 23 22 19 21 22 22 23 25 26 28 28 27 28 31 38 37 30 27 26 24 26 30 27 25 25 23 24 24 24 24 27 26 25 26 28 28 31 31 31 31 31 30 28 28
52 53 53 54 55 54 51 49 48 47 45 43 40 36 32 32 31 29 29 28 26 24 22 22 19 17 15 13 13 15 16 18 18 20 21 24 24 24 23 22 21 23 22 20 21 22 22 22 24 26 28 28 27 28 33 36 33 33 31 29 32 38 34 32 29 29 27 27 27 27 26 28 30 28 28 29 31 34 34 32 31 29 29 28 29
56 55 53 54 56 56 55 53 52 50 46 44 42 40 38 37 34 33 32 29 27 25 25 25 22 21 19 17 16 16 17 17 17 19 21 21 22 23 24 24 22 21 20 19 21 20 22 24 25 26 27 29 33 38 37 36 35 33 33 37 39 38 39 38 35 30 28 29 30 30 29 31 32 31 31 33 34 34 35 34 33 31 31 31 32
56 55 54 53 55 56 56 55 55 53 50 47 44 43 42 41 39 36 34 31 28 26 26 27 26 24 21 21 20 20 18 16 16 18 23 24 24 24 23 22 21 21 21 20 22 25 24 26 29 29 30 31 30 30 33 37 42 43 41 39 37 39 40 41 39 36 33 32 32 32 33 34 35 34 34 35 35 35 34 34 32 31 32 32 32
59 57 54 54 55 55 53 54 54 52 51 49 48 47 45 44 42 39 36 33 31 28 28 27 26 27 25 25 24 23 19 16 15 18 23 27 25 26 26 27 29 30 27 26 28 28 31 31 31 33 34 33 31 31 33 37 40 42 42 41 39 38 38 37 37 37 35 35 34 34 35 36 34 33 34 35 35 34 33 32 31 32 32 34 32
nan 58 58 58 60 56 49 49 51 53 53 54 51 48 46 45 45 43 39 37 34 31 31 29 27 27 28 28 27 24 19 15 16 21 22 22 25 27 30 28 29 29 25 28 34 33 30 30 31 31 32 31 31 30 30 34 35 37 39 40 39 39 40 41 37 35 35 35 33 32 33 34 32 33 33 32 32 32 33 32 32 34 32 30 30
nan nan nan nan 62 57 52 nan nan 49 50 50 50 49 45 40 41 44 43 37 30 29 31 30 28 30 29 27 28 24 21 19 22 26 23 22 23 26 26 30 31 31 31 35 35 35 32 29 28 28 30 30 29 29 31 33 34 33 33 35 37 38 40 40 37 35 35 33 31 31 33 33 31 31 31 31 31 33 33 34 34 33 33 29 28
nan nan nan nan nan nan nan nan nan 47 48 48 48 49 50 48 43 39 38 37 35 30 29 25 25 27 29 28 28 22 20 26 32 31 26 23 23 22 25 30 35 35 45 47 39 33 31 30 28 28 28 28 26 26 30 33 33 33 33 34 34 35 37 38 37 37 35 34 31 32 33 33 31 32 30 30 30 32 35 33 34 34 31 29 28
nan nan nan nan nan nan nan nan nan nan 50 49 48 49 50 51 51 44 37 35 37 37 32 27 25 25 24 26 29 30 25 23 27 31 29 27 25 24 25 31 36 45 47 49 42 34 32 32 31 30 29 27 25 26 30 33 31 31 32 34 32 33 35 35 35 39 37 35 33 32 31 31 30 32 32 33 33 33 36 38 35 33 30 29 28
nan nan nan nan nan nan nan nan nan nan nan nan 51 49 48 50 53 54 50 44 38 35 36 33 29 27 26 26 27 26 27 30 26 28 31 31 30 28 29 34 40 46 53 48 39 39 37 34 33 33 32 28 26 27 31 32 31 30 31 31 31 33 34 32 37 38 36 34 34 32 32 33 33 34 35 36 37 36 38 38 36 35 33 31 30
nan nan nan nan nan nan nan nan nan nan nan nan 50 47 46 48 51 51 49 49 51 49 43 36 33 32 29 26 25 25 25 27 30 32 31 33 34 35 43 47 48 46 47 43 43 39 41 38 36 35 34 31 28 29 32 31 29 28 28 29 29 30 33 36 37 34 34 33 32 31 33 33 36 38 39 40 40 40 40 40 39 37 35 33 32
nan nan nan nan nan nan nan nan nan nan nan nan nan 48 47 48 49 49 48 48 48 48 47 45 40 36 35 35 32 28 27 28 31 35 36 36 45 56 59 55 50 43 38 38 41 43 42 40 38 37 36 34 29 30 31 31 31 30 28 28 30 33 34 36 35 35 34 33 33 33 35 36 37 40 41 42 42 42 40 40 37 35 35 38 37
nan nan nan nan nan nan nan nan nan nan nan nan nan nan nan 49 48 47 47 46 46 48 49 48 49 49 39 35 35 35 33 32 35 39 44 51 57 60 54 49 47 44 43 43 44 45 44 41 39 39 39 34 31 31 32 32 32 30 30 30 32 33 34 35 34 34 33 34 34 35 36 37 38 40 41 41 39 38 38 37 35 32 36 39 35
nan nan nan nan nan nan nan nan nan nan nan nan nan nan nan nan 48 47 46 45 45 46 47 51 53 55 56 51 41 39 39 44 50 52 53 53 53 52 48 49 47 47 48 46 47 46 48 46 43 40 39 35 32 32 34 33 32 32 32 32 32 32 33 34 34 34 36 36 37 38 37 37 38 41 42 38 37 37 36 36 37 38 40 41 38
nan nan nan nan nan nan nan nan nan nan nan nan nan nan nan nan 50 48 47 45 45 46 47 49 52 52 51 49 55 57 59 61 63 61 59 59 55 50 48 46 48 48 48 48 49 50 50 49 48 43 40 38 35 35 36 35 35 34 34 33 32 30 30 31 32 34 35 37 37 38 38 38 41 43 41 36 36 39 38 40 43 44 44 42 39
nan nan nan nan nan nan nan nan nan nan nan nan nan nan nan nan nan 49 47 45 45 47 48 49 49 51 52 55 63 65 67 62 57 52 55 55 55 55 53 50 49 48 48 50 52 52 50 51 51 48 43 40 37 37 38 38 37 36 34 34 33 32 32 33 33 35 37 38 39 40 40 41 45 43 37 32 34 34 33 34 36 38 38 38 44
nan nan nan nan nan nan nan nan nan nan nan nan nan nan nan nan nan nan 48 45 44 46 48 49 49 50 53 57 60 64 59 57 56 54 56 57 58 56 55 51 50 48 49 52 56 54 51 52 54 51 46 42 41 40 41 41 40 38 36 35 34 33 32 32 33 36 36 37 39 41 42 45 46 41 34 31 31 28 27 30 33 31 31 35 39
nan nan nan nan nan nan nan nan nan nan nan nan nan nan nan nan nan nan nan nan 46 46 46 48 49 51 53 54 58 58 56 53 52 53 55 55 55 54 53 51 50 50 52 60 63 55 50 50 50 49 47 45 45 46 46 46 42 41 38 36 36 34 32 32 33 34 36 39 42 43 43 44 43 38 33 32 32 29 29 33 38 36 35 37 38
nan nan nan nan nan nan nan nan nan nan nan nan nan nan nan nan nan nan nan nan nan 46 46 46 48 49 49 46 48 52 54 53 53 54 55 54 54 54 53 52 51 51 57 65 58 49 49 50 50 50 50 50 49 49 51 50 46 43 41 39 36 34 33 32 33 35 37 41 45 46 46 46 43 36 33 35 29 26 31 35 40 41 41 39 37
nan nan nan nan nan nan nan nan nan nan nan nan nan nan nan nan nan nan nan nan nan nan 46 45 44 45 44 44 43 45 49 48 50 50 51 52 53 52 51 51 52 54 57 59 56 53 53 52 49 48 50 52 52 53 54 51 48 46 44 42 38 35 33 33 35 37 39 43 48 52 51 49 42 34 30 30 29 32 33 36 39 39 39 38 37
nan nan nan nan nan nan nan nan nan nan nan nan nan nan nan nan nan nan nan nan nan nan nan nan 43 43 42 42 44 48 47 45 46 47 48 47 48 48 49 52 57 60 58 57 56 56 56 55 51 49 50 51 54 56 55 52 51 49 47 45 42 38 35 35 38 40 42 45 50 51 47 40 36 34 33 33 32 34 35 36 36 38 40 39 43
nan nan nan nan nan nan nan nan nan nan nan nan nan nan nan nan nan nan nan nan nan 56 50 45 42 41 41 41 45 48 49 46 45 46 47 47 44 47 53 54 54 56 59 57 56 54 52 52 52 53 52 53 56 60 60 58 56 52 51 49 48 45 40 38 40 45 48 49 50 51 46 40 37 39 41 39 35 35 36 38 38 41 43 44 45
nan nan nan nan nan nan nan nan nan nan nan nan nan nan nan nan 57 57 nan nan nan 61 59 58 55 50 45 40 42 46 48 48 48 48 48 50 56 58 58 57 58 57 57 56 54 50 47 48 52 55 56 57 60 67 66 65 62 59 57 56 53 51 49 46 45 46 46 46 46 46 45 45 45 46 47 43 38 36 36 38 40 42 44 46 46
nan nan nan nan nan nan nan nan nan nan nan nan nan nan nan nan nan 59 61 67 69 68 64 61 59 58 55 54 54 55 55 55 56 58 59 62 63 62 60 59 59 58 56 55 54 54 54 55 57 58 59 66 68 69 68 67 65 61 60 58 57 56 53 52 49 47 46 44 45 45 46 46 48 47 44 42 40 39 40 40 43 46 47 48 48
nan nan nan nan nan nan nan nan nan nan nan nan nan nan nan nan nan 66 64 66 70 71 70 68 63 60 57 56 56 58 61 63 64 64 64 64 65 64 63 62 61 60 59 59 60 60 61 61 60 60 61 66 69 69 68 69 68 67 65 62 59 58 60 58 53 52 51 52 52 51 46 43 42 41 41 42 41 40 40 42 45 47 49 50 49
nan nan nan nan nan nan nan nan nan nan nan nan nan nan nan nan nan nan 70 68 67 70 73 74 71 69 66 62 60 61 62 63 63 64 66 66 64 63 63 63 63 62 63 64 64 65 63 63 63 62 60 62 65 67 68 69 72 73 74 69 68 70 68 64 56 54 58 58 56 53 52 53 53 51 49 45 42 42 46 50 51 51 50 49 49
nan nan nan nan nan nan nan nan nan nan nan nan nan nan nan nan nan nan 75 74 71 70 72 75 75 74 72 68 66 64 64 65 65 65 66 66 66 65 64 63 64 64 65 67 68 67 66 65 64 63 61 61 65 68 69 69 71 72 73 74 78 77 73 73 72 73 69 66 60 54 55 57 55 49 44 43 45 49 51 50 49 48 47 48 50
nan nan nan nan nan nan nan nan nan nan nan nan nan nan nan nan nan nan nan 80 77 74 73 73 74 74 74 72 69 65 66 67 67 67 65 67 67 68 67 65 64 65 67 68 68 68 68 68 65 64 65 66 68 71 71 72 72 73 77 84 83 77 71 67 62 61 59 53 48 46 46 46 44 44 46 47 49 51 52 50 49 50 51 53 54
Wind_Direction
223 225 232 226 224 221 218 218 nan 220 220 219 nan nan nan nan nan 186 200 187 202 199 185 179 184 180 186 181 173 171 172 182 188 195 193 187 188 189 197 202 201 198 204 204 202 202 204 197 189 187 203 196 185 192 195 196 198 198 199 203 206 209 214 217 195 180 193 211 207 200 207 208 212 233 219 222 220 223 228 278 297 318 335 345 348
207 214 220 224 228 227 223 220 220 nan nan nan 221 nan nan nan nan 220 208 193 207 199 183 193 193 204 200 189 178 181 180 182 194 194 192 188 186 194 198 202 201 203 213 209 211 205 205 205 197 191 199 198 199 195 198 201 199 196 196 202 203 206 207 214 207 204 183 203 198 215 212 233 214 241 230 221 220 230 233 253 286 304 317 329 329
207 211 215 219 221 223 225 223 223 nan nan nan 218 nan nan nan nan nan 223 216 214 204 197 200 203 209 201 194 195 193 185 191 197 192 184 185 187 191 198 202 202 207 213 213 215 216 207 202 196 201 203 198 200 198 207 206 207 200 194 203 203 206 211 211 218 204 195 197 220 209 219 228 232 227 238 245 245 252 246 248 258 271 295 309 312
210 212 212 213 221 224 225 225 228 224 nan nan nan 222 nan nan nan nan nan 228 227 215 210 210 217 212 207 205 205 201 203 198 199 189 181 184 182 184 191 194 195 197 203 210 214 221 216 204 191 201 207 200 196 201 206 212 214 209 202 204 207 209 215 221 218 218 216 209 215 219 223 222 236 250 252 260 258 257 264 265 269 276 285 295 299
201 208 212 215 221 223 225 226 225 227 223 220 nan nan 223 227 nan nan nan nan 230 228 215 220 220 217 212 217 210 210 206 210 201 193 188 186 182 182 180 182 180 179 184 197 204 214 213 207 196 203 211 202 197 200 207 212 217 218 212 213 214 214 220 226 228 231 228 218 220 230 234 240 251 248 260 257 266 272 276 282 283 287 292 297 299
195 203 211 213 214 219 223 225 223 222 224 223 226 226 224 225 227 227 nan nan nan 232 228 222 222 221 218 217 217 209 213 211 202 195 195 194 190 184 182 177 173 173 173 176 189 202 195 198 196 208 211 215 201 208 214 214 222 223 222 221 223 227 228 233 237 238 240 236 236 230 239 241 245 258 264 271 269 266 275 285 290 296 297 296 296
199 201 207 208 209 209 216 220 221 221 221 221 224 225 224 nan 224 226 232 nan nan nan 231 227 220 224 221 223 221 221 219 218 207 202 200 198 194 189 185 179 178 178 173 171 176 182 182 182 189 197 197 207 208 215 226 227 227 225 233 231 236 239 239 244 249 247 250 245 246 256 249 257 267 260 274 281 289 297 290 286 288 296 301 303 303
202 201 201 201 202 203 206 211 215 219 221 222 224 225 225 225 224 225 230 232 233 nan nan 232 226 226 225 224 222 224 226 223 216 207 206 204 202 196 192 188 183 179 179 179 179 181 185 183 178 181 180 193 205 217 240 234 241 231 239 242 244 248 248 253 254 255 255 258 258 253 263 258 266 282 282 283 287 291 296 295 295 297 299 305 312
210 208 204 197 198 203 206 207 209 214 220 223 225 226 227 227 228 228 228 228 229 231 232 nan 232 230 228 228 227 228 227 226 223 218 213 210 206 202 199 194 191 187 184 183 189 190 191 197 197 191 190 154 118 167 227 246 248 240 243 257 257 258 257 255 258 259 260 261 258 268 268 269 278 279 279 292 300 292 291 295 298 304 307 310 313
213 215 210 206 205 207 208 209 212 215 218 221 225 227 227 228 231 232 232 231 231 233 233 234 234 235 234 231 229 226 223 225 231 246 231 218 216 209 207 202 199 196 191 193 193 198 200 206 210 350 52 77 78 63 57 36 330 263 245 267 270 269 268 265 265 267 266 265 268 269 268 275 284 295 298 303 297 291 293 298 300 299 302 310 313
212 215 217 218 218 216 215 214 216 217 219 220 223 226 228 228 230 232 235 236 236 236 237 237 236 235 238 237 232 223 220 223 247 256 249 242 226 218 214 209 209 205 201 202 198 206 209 214 216 206 207 238 178 51 24 20 6 3 15 315 287 288 281 279 274 274 272 274 273 277 282 276 287 298 304 295 295 297 295 296 299 297 297 296 300
212 213 218 225 227 227 224 225 222 219 222 222 225 227 228 228 229 231 233 237 237 239 240 239 238 237 237 238 235 226 219 225 249 257 259 254 240 226 222 217 217 214 211 208 206 211 213 220 223 228 229 232 240 244 278 10 2 352 356 353 339 332 319 302 289 279 282 280 279 285 282 286 285 291 295 291 291 292 295 294 297 297 295 298 301
213 212 217 224 228 229 229 230 230 227 226 226 227 229 230 229 229 230 232 234 237 239 240 240 240 240 241 242 238 232 221 233 248 256 258 260 258 240 225 223 220 218 218 216 215 215 219 222 224 229 229 268 246 243 246 246 290 356 347 350 353 349 342 335 317 302 285 288 288 284 291 288 288 292 297 294 288 291 288 290 291 293 292 293 296
213 213 217 221 226 231 231 231 233 233 232 231 232 233 233 232 231 231 231 235 238 238 239 239 238 240 242 243 240 234 230 238 nan 259 259 264 263 252 229 229 225 221 220 223 222 222 225 229 231 231 236 239 241 245 248 249 250 258 267 273 278 301 331 338 334 330 309 297 296 297 298 297 300 298 295 295 295 295 294 295 292 290 291 294 292
210 213 215 217 223 230 233 233 234 236 238 239 239 239 239 235 235 235 235 237 239 240 241 240 239 238 239 240 238 236 233 252 nan nan 267 270 269 258 235 232 229 224 224 227 227 228 228 230 234 235 239 245 246 254 252 249 252 253 258 268 274 274 280 286 290 291 295 300 310 312 311 307 311 311 305 301 306 301 299 297 293 290 287 287 287
209 208 210 214 218 223 230 233 234 237 241 243 245 246 244 243 242 241 238 236 236 237 237 238 239 239 239 240 239 236 238 263 271 nan 278 273 275 254 245 238 233 227 225 227 231 232 231 232 234 236 238 245 257 280 270 254 253 254 257 258 261 266 274 286 296 297 298 301 305 311 312 321 324 320 313 307 306 300 293 289 286 288 291 295 296
211 209 210 211 214 217 221 227 230 235 240 244 247 249 250 248 245 243 241 240 240 240 240 241 240 241 243 245 244 237 235 256 274 281 nan nan 265 254 252 247 241 234 227 228 230 234 237 236 237 236 237 241 256 276 275 269 255 257 254 252 253 256 261 268 286 303 309 314 322 328 332 334 334 334 325 317 313 304 299 296 298 295 298 300 299
211 210 211 211 212 215 220 224 228 234 238 243 245 246 248 248 249 250 248 247 246 246 244 242 243 244 248 250 251 245 241 253 274 279 286 nan 279 265 257 257 252 246 237 234 233 233 237 248 246 239 237 238 252 268 271 268 255 256 255 253 251 253 254 261 264 275 299 310 315 323 326 324 323 323 319 316 314 305 307 312 305 299 304 302 299
211 211 210 211 213 213 212 217 225 230 235 238 238 242 246 250 251 252 250 249 247 245 245 244 246 248 250 253 261 259 249 256 277 284 289 288 282 264 262 258 256 255 252 246 243 239 237 241 251 248 242 239 248 260 269 267 256 257 256 254 254 259 262 258 263 269 274 276 280 284 287 300 301 299 303 312 312 311 308 312 305 307 310 305 302
209 211 211 211 215 215 214 211 213 221 229 232 234 237 240 242 247 252 252 252 253 252 251 249 250 250 253 256 256 259 259 258 270 288 289 291 294 277 265 263 259 261 257 254 250 247 244 241 244 252 253 247 248 258 267 274 261 255 256 256 255 256 261 266 271 273 272 279 279 282 284 281 283 287 289 293 300 307 308 309 309 310 310 309 306
209 209 212 214 217 219 218 215 211 212 216 222 226 228 233 238 242 247 249 251 256 258 261 258 255 254 256 259 259 262 260 262 265 283 286 291 296 291 273 275 271 264 259 256 254 253 252 249 245 253 258 253 251 255 265 272 270 260 259 259 262 259 257 263 271 283 279 282 284 282 282 281 281 282 284 288 293 297 302 306 308 309 309 306 305
210 208 211 216 219 220 220 218 216 214 215 219 222 225 228 234 238 243 244 246 251 257 263 265 264 262 260 264 265 266 267 275 262 274 287 290 294 302 283 282 280 270 263 258 256 256 257 256 253 256 263 260 257 257 266 270 274 263 263 273 271 267 261 263 265 271 277 280 282 284 286 286 286 288 289 290 294 298 302 304 306 307 306 305 305
210 209 211 216 218 218 219 217 215 215 216 219 223 225 230 233 237 240 244 245 246 249 254 259 264 266 266 269 268 267 266 265 279 270 282 292 296 301 309 292 291 280 272 267 265 262 259 259 259 265 268 266 262 261 265 271 265 264 273 272 272 272 265 258 264 271 277 281 284 287 288 288 289 291 292 293 297 301 303 304 304 305 303 302 304
212 212 213 215 216 218 219 217 217 216 215 218 221 225 231 235 236 239 242 243 243 244 244 249 252 256 262 266 270 270 268 267 276 289 282 295 296 305 309 306 292 282 278 270 267 264 263 262 261 268 271 271 269 266 266 268 266 272 272 272 270 266 261 262 264 270 275 280 284 286 287 288 290 290 292 296 300 301 302 302 304 307 305 303 302
213 214 214 214 215 218 220 220 218 215 215 217 219 224 230 236 237 239 242 242 243 242 243 247 248 249 251 257 264 267 270 270 271 285 302 298 306 309 309 308 297 293 283 274 273 271 274 278 275 274 273 274 275 271 264 269 274 269 270 271 267 262 265 264 264 266 272 278 282 284 285 287 290 292 292 295 294 289 293 297 301 302 299 296 295
212 214 214 213 213 216 217 219 220 217 214 218 219 222 227 234 238 239 241 242 242 240 241 244 245 245 242 243 250 259 267 271 275 278 286 298 300 310 309 306 307 304 300 284 287 289 285 284 284 281 276 272 266 264 266 270 276 277 269 265 263 265 266 267 266 267 270 274 278 282 284 283 287 290 292 292 293 297 298 299 299 298 298 298 295
211 214 214 213 212 213 215 219 220 218 218 218 220 222 225 230 234 237 240 242 242 241 240 241 241 241 240 240 241 244 253 266 276 280 279 277 276 282 287 290 304 301 283 269 269 269 270 268 267 272 272 279 282 279 275 272 270 269 269 269 266 265 266 268 270 270 269 271 274 276 278 281 282 287 290 292 294 296 300 299 300 298 297 298 300
211 213 214 214 212 214 215 213 216 219 218 219 219 220 224 229 230 234 238 241 242 242 242 243 242 242 240 241 242 242 242 250 267 277 275 272 275 275 277 277 275 274 275 271 266 264 262 264 267 270 273 276 279 279 280 277 277 275 274 272 270 268 269 270 269 267 267 268 267 268 271 277 282 287 288 291 294 296 296 297 298 296 296 296 296
nan 213 216 216 212 214 218 219 218 217 217 218 218 218 220 225 228 227 229 235 239 241 244 242 242 242 241 241 244 241 239 240 249 261 269 281 279 271 271 273 271 269 279 282 269 265 266 268 271 276 279 284 284 286 286 286 285 283 281 278 275 273 272 273 275 275 274 271 269 269 271 275 280 282 287 292 294 294 292 293 293 294 296 297 303
nan nan nan nan 216 218 221 nan nan 219 217 218 217 217 217 219 223 224 224 231 237 241 245 243 242 242 241 241 245 245 240 238 248 264 268 273 281 289 290 289 288 281 278 280 273 269 272 276 280 282 283 285 287 288 288 289 289 291 291 288 283 279 277 276 275 274 273 273 269 268 270 273 278 282 286 291 291 289 293 299 296 295 296 297 297
nan nan nan nan nan nan nan nan nan 221 219 219 220 221 222 219 215 211 216 223 235 240 243 242 238 241 245 239 241 240 228 229 244 260 267 270 277 284 287 288 289 287 277 270 266 269 272 278 281 281 283 286 290 292 288 287 289 291 293 292 289 284 280 276 275 273 271 269 267 266 267 272 277 280 285 288 290 290 288 293 295 294 296 297 301
nan nan nan nan nan nan nan nan nan nan 218 219 221 223 223 219 215 217 218 219 221 230 237 240 241 242 243 244 242 238 237 239 245 254 261 267 270 275 278 280 283 283 286 287 277 275 276 277 279 282 283 287 292 293 289 288 290 293 293 292 294 289 284 278 277 272 270 269 269 269 271 275 277 278 279 281 285 289 287 287 292 293 292 293 298
nan nan nan nan nan nan nan nan nan nan nan nan 215 218 219 216 214 215 221 228 229 229 230 233 235 236 240 238 241 241 239 244 256 256 257 261 265 266 270 273 274 277 276 275 278 276 277 279 279 280 281 285 290 293 291 293 292 291 292 296 295 289 285 282 276 273 274 274 271 269 269 269 270 272 275 277 280 283 286 288 289 288 290 292 291
nan nan nan nan nan nan nan nan nan nan nan nan 214 217 219 220 219 222 222 222 224 226 228 231 234 238 239 244 246 244 240 239 246 256 260 261 262 260 258 253 260 273 280 279 277 277 276 278 279 279 280 283 286 288 290 295 295 291 291 293 292 287 282 277 277 279 276 275 273 269 267 265 267 269 273 277 280 282 282 283 282 284 284 286 288
nan nan nan nan nan nan nan nan nan nan nan nan nan 221 224 224 225 225 225 225 226 230 232 232 236 243 240 238 240 241 241 244 247 250 255 258 258 260 261 256 256 257 261 263 273 275 276 277 277 278 278 280 285 289 295 298 295 291 289 288 284 280 279 281 282 280 278 276 273 268 265 266 270 274 278 281 281 280 279 276 278 284 286 280 275
nan nan nan nan nan nan nan nan nan nan nan nan nan nan nan 228 228 228 229 229 228 229 229 232 232 238 242 237 238 241 243 244 246 248 249 254 261 265 258 259 261 263 267 271 274 277 279 279 278 276 277 279 281 284 289 293 295 291 285 282 281 280 281 281 282 279 279 275 272 270 269 271 277 282 285 284 284 281 275 273 274 282 285 284 287
nan nan nan nan nan nan nan nan nan nan nan nan nan nan nan nan 231 233 234 233 232 231 230 230 232 234 238 237 239 241 246 247 247 250 254 259 266 262 257 260 260 262 263 267 271 275 277 278 279 278 279 281 280 282 285 290 292 289 282 281 280 280 280 281 279 279 277 275 272 271 274 278 285 289 286 284 280 277 276 273 271 275 284 292 293
nan nan nan nan nan nan nan nan nan nan nan nan nan nan nan nan 231 233 235 236 236 236 235 232 234 236 237 235 242 243 245 250 254 254 256 258 261 257 257 258 260 262 263 263 267 269 273 276 278 280 280 281 281 281 282 286 288 287 283 281 281 282 285 282 280 278 277 275 274 275 276 281 289 289 286 281 280 279 279 276 272 273 276 282 282
nan nan nan nan nan nan nan nan nan nan nan nan nan nan nan nan nan 230 234 236 237 240 239 237 235 236 236 235 240 246 249 251 253 255 258 259 259 258 258 260 261 263 264 265 265 266 268 272 275 276 277 279 280 279 279 282 285 285 283 279 278 276 277 276 280 280 277 275 275 274 277 285 291 290 286 284 282 282 282 280 277 272 275 278 275
nan nan nan nan nan nan nan nan nan nan nan nan nan nan nan nan nan nan 231 236 239 241 241 241 239 237 236 236 242 248 251 252 253 255 257 260 260 261 262 264 265 267 268 267 264 263 265 266 269 272 276 279 280 280 279 279 281 284 283 280 277 277 278 279 281 279 278 276 273 272 280 289 291 286 285 286 283 280 278 276 275 274 280 289 293
nan nan nan nan nan nan nan nan nan nan nan nan nan nan nan nan nan nan nan nan 236 240 242 242 241 240 240 240 244 250 249 249 251 253 256 259 261 264 266 267 268 268 268 267 266 266 268 269 273 277 277 279 281 282 281 280 281 283 283 279 275 276 276 277 279 277 274 272 271 272 282 290 288 283 281 280 272 272 280 284 282 284 284 284 287
nan nan nan nan nan nan nan nan nan nan nan nan nan nan nan nan nan nan nan nan nan 237 238 240 241 242 243 247 248 254 252 249 249 251 253 257 259 262 264 267 268 269 269 270 275 276 272 267 268 271 274 276 278 279 279 281 282 281 282 279 277 275 275 276 278 277 274 271 271 275 284 290 286 280 276 271 273 273 274 278 283 285 281 284 285
nan nan nan nan nan nan nan nan nan nan nan nan nan nan nan nan nan nan nan nan nan nan 235 237 239 243 243 247 249 253 253 251 251 253 253 255 258 261 264 267 268 270 271 273 277 277 274 270 267 266 268 273 275 276 278 281 283 281 280 279 277 276 277 275 272 271 270 271 272 279 285 284 276 269 270 277 277 278 283 285 290 296 296 294 291
nan nan nan nan nan nan nan nan nan nan nan nan nan nan nan nan nan nan nan nan nan nan nan nan 237 240 242 247 251 252 255 253 253 254 256 257 259 262 264 265 267 269 272 276 278 278 275 273 272 269 266 268 271 273 274 276 279 279 278 276 273 272 270 270 270 269 269 270 273 280 284 275 262 262 272 279 278 281 286 290 293 293 297 298 293
nan nan nan nan nan nan nan nan nan nan nan nan nan nan nan nan nan nan nan nan nan 228 228 232 237 239 240 243 251 256 259 256 255 257 258 260 261 261 263 265 268 270 272 275 276 275 275 274 274 274 272 269 269 270 270 271 270 270 270 271 271 271 270 270 269 268 270 272 275 278 275 265 260 266 273 273 272 277 284 290 292 290 293 294 294
nan nan nan nan nan nan nan nan nan nan nan nan nan nan nan nan 239 238 nan nan nan 230 228 228 229 232 235 241 249 256 259 258 257 258 260 259 256 256 257 259 261 263 265 266 264 263 263 266 270 273 274 272 268 262 261 262 263 264 265 263 262 262 260 259 261 268 273 275 274 274 271 266 266 271 273 270 271 276 280 283 285 288 290 290 289
nan nan nan nan nan nan nan nan nan nan nan nan nan nan nan nan nan 240 238 235 233 232 232 233 234 236 239 241 242 243 244 250 254 254 255 257 260 260 259 259 260 260 260 260 255 252 252 255 258 258 264 261 259 260 261 261 260 261 263 266 266 266 267 265 262 263 264 265 266 269 270 267 267 269 271 270 270 275 278 282 283 284 283 287 288
nan nan nan nan nan nan nan nan nan nan nan nan nan nan nan nan nan 240 239 236 235 235 236 237 239 241 243 247 250 250 248 249 250 251 252 254 256 258 259 259 260 260 260 258 255 254 252 250 249 251 255 257 258 260 263 264 263 261 261 261 260 260 259 257 260 260 261 262 262 266 265 260 257 266 274 275 272 273 276 276 278 277 277 279 282
nan nan nan nan nan nan nan nan nan nan nan nan nan nan nan nan nan nan 239 238 238 239 239 240 241 243 245 249 254 254 252 249 249 251 253 252 253 255 258 259 260 261 260 259 258 256 254 251 250 251 252 255 258 261 263 264 264 263 262 260 260 260 260 262 263 263 262 262 264 265 264 261 262 269 276 274 268 268 269 267 269 270 272 274 278
nan nan nan nan nan nan nan nan nan nan nan nan nan nan nan nan nan nan 241 240 240 241 242 243 244 245 247 249 253 256 255 253 252 252 253 253 253 253 254 256 257 257 258 257 258 258 258 256 254 255 255 255 255 256 259 260 261 262 262 262 261 260 259 259 258 256 257 257 257 260 263 260 256 260 267 268 267 269 270 266 262 266 272 277 281
nan nan nan nan nan nan nan nan nan nan nan nan nan nan nan nan nan nan nan 242 242 243 245 245 247 250 251 252 255 258 257 255 254 254 255 254 254 254 254 255 257 258 258 258 257 257 258 258 257 258 260 257 255 254 254 255 256 258 260 261 262 262 260 260 261 259 253 249 252 261 264 256 253 261 271 274 273 272 268 263 262 267 270 274 274